owner,sensor,date,latitude,longitude,air_temperature,qcFlag 
DISL,ioos:station:DISL:DISL:1,2011-10-01T00:00:00Z,30.2513,-88.0778,25.9,1111122 
DISL,ioos:station:DISL:DISL:1,2011-10-01T00:30:00Z,30.2513,-88.0778,25.67,1111122 
DISL,ioos:station:DISL:DISL:1,2011-10-01T01:00:00Z,30.2513,-88.0778,25.41,1111122 
DISL,ioos:station:DISL:DISL:1,2011-10-01T01:30:00Z,30.2513,-88.0778,24.69,1111122 
DISL,ioos:station:DISL:DISL:1,2011-10-01T02:00:00Z,30.2513,-88.0778,24.14,1111122 
DISL,ioos:station:DISL:DISL:1,2011-10-01T02:30:00Z,30.2513,-88.0778,23.98,1111122 
DISL,ioos:station:DISL:DISL:1,2011-10-01T03:00:00Z,30.2513,-88.0778,23.2,1111122 
DISL,ioos:station:DISL:DISL:1,2011-10-01T03:30:00Z,30.2513,-88.0778,23.34,1111122 
DISL,ioos:station:DISL:DISL:1,2011-10-01T04:00:00Z,30.2513,-88.0778,23.09,1111122 
DISL,ioos:station:DISL:DISL:1,2011-10-01T04:30:00Z,30.2513,-88.0778,22.75,1111122 
DISL,ioos:station:DISL:DISL:1,2011-10-01T05:00:00Z,30.2513,-88.0778,22.63,1111122 
DISL,ioos:station:DISL:DISL:1,2011-10-01T05:30:00Z,30.2513,-88.0778,22.72,1111122 
DISL,ioos:station:DISL:DISL:1,2011-10-01T06:00:00Z,30.2513,-88.0778,22.53,1111122 
DISL,ioos:station:DISL:DISL:1,2011-10-01T06:30:00Z,30.2513,-88.0778,22.35,1111122 
DISL,ioos:station:DISL:DISL:1,2011-10-01T07:00:00Z,30.2513,-88.0778,22.29,1111122 
DISL,ioos:station:DISL:DISL:1,2011-10-01T07:30:00Z,30.2513,-88.0778,21.8,1111122 
DISL,ioos:station:DISL:DISL:1,2011-10-01T08:00:00Z,30.2513,-88.0778,21.42,1111122 
DISL,ioos:station:DISL:DISL:1,2011-10-01T08:30:00Z,30.2513,-88.0778,21.15,1111122 
DISL,ioos:station:DISL:DISL:1,2011-10-01T09:00:00Z,30.2513,-88.0778,20.81,1111122 
DISL,ioos:station:DISL:DISL:1,2011-10-01T09:30:00Z,30.2513,-88.0778,20.49,1111122 
DISL,ioos:station:DISL:DISL:1,2011-10-01T10:00:00Z,30.2513,-88.0778,20.21,1111122 
DISL,ioos:station:DISL:DISL:1,2011-10-01T10:30:00Z,30.2513,-88.0778,19.98,1111122 
DISL,ioos:station:DISL:DISL:1,2011-10-01T11:00:00Z,30.2513,-88.0778,19.88,1111122 
DISL,ioos:station:DISL:DISL:1,2011-10-01T11:30:00Z,30.2513,-88.0778,19.86,1111122 
DISL,ioos:station:DISL:DISL:1,2011-10-01T12:00:00Z,30.2513,-88.0778,19.58,1111122 
DISL,ioos:station:DISL:DISL:1,2011-10-01T12:30:00Z,30.2513,-88.0778,19.33,1111122 
DISL,ioos:station:DISL:DISL:1,2011-10-01T13:00:00Z,30.2513,-88.0778,19.35,1111122 
DISL,ioos:station:DISL:DISL:1,2011-10-01T13:30:00Z,30.2513,-88.0778,19.22,1111122 
DISL,ioos:station:DISL:DISL:1,2011-10-01T14:00:00Z,30.2513,-88.0778,19.22,1111122 
DISL,ioos:station:DISL:DISL:1,2011-10-01T14:30:00Z,30.2513,-88.0778,19.37,1111122 
DISL,ioos:station:DISL:DISL:1,2011-10-01T15:00:00Z,30.2513,-88.0778,19.47,1111122 
DISL,ioos:station:DISL:DISL:1,2011-10-01T15:30:00Z,30.2513,-88.0778,19.72,1111122 
DISL,ioos:station:DISL:DISL:1,2011-10-01T16:00:00Z,30.2513,-88.0778,20.15,1111122 
DISL,ioos:station:DISL:DISL:1,2011-10-01T16:30:00Z,30.2513,-88.0778,20.19,1111122 
DISL,ioos:station:DISL:DISL:1,2011-10-01T17:00:00Z,30.2513,-88.0778,20.66,1111122 
DISL,ioos:station:DISL:DISL:1,2011-10-01T17:30:00Z,30.2513,-88.0778,21.23,1111122 
DISL,ioos:station:DISL:DISL:1,2011-10-01T18:00:00Z,30.2513,-88.0778,21.96,1111122 
DISL,ioos:station:DISL:DISL:1,2011-10-01T18:30:00Z,30.2513,-88.0778,22.16,1111122 
DISL,ioos:station:DISL:DISL:1,2011-10-01T19:00:00Z,30.2513,-88.0778,22.36,1111122 
DISL,ioos:station:DISL:DISL:1,2011-10-01T19:30:00Z,30.2513,-88.0778,22.77,1111122 
DISL,ioos:station:DISL:DISL:1,2011-10-01T20:00:00Z,30.2513,-88.0778,22.94,1111122 
DISL,ioos:station:DISL:DISL:1,2011-10-01T20:30:00Z,30.2513,-88.0778,23.27,1111122 
DISL,ioos:station:DISL:DISL:1,2011-10-01T21:00:00Z,30.2513,-88.0778,23.76,1111122 
DISL,ioos:station:DISL:DISL:1,2011-10-01T21:30:00Z,30.2513,-88.0778,23.87,1111122 
DISL,ioos:station:DISL:DISL:1,2011-10-01T22:00:00Z,30.2513,-88.0778,23.93,1111122 
DISL,ioos:station:DISL:DISL:1,2011-10-01T22:30:00Z,30.2513,-88.0778,23.92,1111122 
DISL,ioos:station:DISL:DISL:1,2011-10-01T23:00:00Z,30.2513,-88.0778,23.95,1111122 
DISL,ioos:station:DISL:DISL:1,2011-10-01T23:30:00Z,30.2513,-88.0778,23.67,1111122 
DISL,ioos:station:DISL:DISL:1,2011-10-02T00:00:00Z,30.2513,-88.0778,23.47,1111122 
DISL,ioos:station:DISL:DISL:1,2011-10-02T00:30:00Z,30.2513,-88.0778,23.19,1111122 
DISL,ioos:station:DISL:DISL:1,2011-10-02T01:00:00Z,30.2513,-88.0778,22.8,1111122 
DISL,ioos:station:DISL:DISL:1,2011-10-02T01:30:00Z,30.2513,-88.0778,22.62,1111122 
DISL,ioos:station:DISL:DISL:1,2011-10-02T02:00:00Z,30.2513,-88.0778,22.28,1111122 
DISL,ioos:station:DISL:DISL:1,2011-10-02T02:30:00Z,30.2513,-88.0778,22.02,1111122 
DISL,ioos:station:DISL:DISL:1,2011-10-02T03:00:00Z,30.2513,-88.0778,21.56,1111122 
DISL,ioos:station:DISL:DISL:1,2011-10-02T03:30:00Z,30.2513,-88.0778,21.14,1111122 
DISL,ioos:station:DISL:DISL:1,2011-10-02T04:00:00Z,30.2513,-88.0778,21.0,1111122 
DISL,ioos:station:DISL:DISL:1,2011-10-02T04:30:00Z,30.2513,-88.0778,20.66,1111122 
DISL,ioos:station:DISL:DISL:1,2011-10-02T05:00:00Z,30.2513,-88.0778,20.35,1111122 
DISL,ioos:station:DISL:DISL:1,2011-10-02T05:30:00Z,30.2513,-88.0778,19.91,1111122 
DISL,ioos:station:DISL:DISL:1,2011-10-02T06:00:00Z,30.2513,-88.0778,19.47,1111122 
DISL,ioos:station:DISL:DISL:1,2011-10-02T06:30:00Z,30.2513,-88.0778,19.09,1111122 
DISL,ioos:station:DISL:DISL:1,2011-10-02T07:00:00Z,30.2513,-88.0778,18.8,1111122 
DISL,ioos:station:DISL:DISL:1,2011-10-02T07:30:00Z,30.2513,-88.0778,18.52,1111122 
DISL,ioos:station:DISL:DISL:1,2011-10-02T08:00:00Z,30.2513,-88.0778,18.17,1111122 
DISL,ioos:station:DISL:DISL:1,2011-10-02T08:30:00Z,30.2513,-88.0778,18.06,1111122 
DISL,ioos:station:DISL:DISL:1,2011-10-02T09:00:00Z,30.2513,-88.0778,17.75,1111122 
DISL,ioos:station:DISL:DISL:1,2011-10-02T09:30:00Z,30.2513,-88.0778,17.58,1111122 
DISL,ioos:station:DISL:DISL:1,2011-10-02T10:00:00Z,30.2513,-88.0778,17.16,1111122 
DISL,ioos:station:DISL:DISL:1,2011-10-02T10:30:00Z,30.2513,-88.0778,16.86,1111122 
DISL,ioos:station:DISL:DISL:1,2011-10-02T11:00:00Z,30.2513,-88.0778,16.28,1111122 
DISL,ioos:station:DISL:DISL:1,2011-10-02T11:30:00Z,30.2513,-88.0778,16.26,1111122 
DISL,ioos:station:DISL:DISL:1,2011-10-02T12:00:00Z,30.2513,-88.0778,16.04,1111122 
DISL,ioos:station:DISL:DISL:1,2011-10-02T12:30:00Z,30.2513,-88.0778,15.78,1111122 
DISL,ioos:station:DISL:DISL:1,2011-10-02T13:00:00Z,30.2513,-88.0778,15.62,1111122 
DISL,ioos:station:DISL:DISL:1,2011-10-02T13:30:00Z,30.2513,-88.0778,15.84,1111122 
DISL,ioos:station:DISL:DISL:1,2011-10-02T14:00:00Z,30.2513,-88.0778,16.13,1111122 
DISL,ioos:station:DISL:DISL:1,2011-10-02T14:30:00Z,30.2513,-88.0778,16.04,1111122 
DISL,ioos:station:DISL:DISL:1,2011-10-02T15:00:00Z,30.2513,-88.0778,15.99,1111122 
DISL,ioos:station:DISL:DISL:1,2011-10-02T15:30:00Z,30.2513,-88.0778,16.01,1111122 
DISL,ioos:station:DISL:DISL:1,2011-10-02T16:00:00Z,30.2513,-88.0778,16.45,1111122 
DISL,ioos:station:DISL:DISL:1,2011-10-02T16:30:00Z,30.2513,-88.0778,16.93,1111122 
DISL,ioos:station:DISL:DISL:1,2011-10-02T17:00:00Z,30.2513,-88.0778,17.04,1111122 
DISL,ioos:station:DISL:DISL:1,2011-10-02T17:30:00Z,30.2513,-88.0778,17.45,1111122 
DISL,ioos:station:DISL:DISL:1,2011-10-02T18:00:00Z,30.2513,-88.0778,17.57,1111122 
DISL,ioos:station:DISL:DISL:1,2011-10-02T18:30:00Z,30.2513,-88.0778,18.18,1111122 
DISL,ioos:station:DISL:DISL:1,2011-10-02T19:00:00Z,30.2513,-88.0778,19.03,1111122 
DISL,ioos:station:DISL:DISL:1,2011-10-02T19:30:00Z,30.2513,-88.0778,19.3,1111122 
DISL,ioos:station:DISL:DISL:1,2011-10-02T20:00:00Z,30.2513,-88.0778,19.9,1111122 
DISL,ioos:station:DISL:DISL:1,2011-10-02T20:30:00Z,30.2513,-88.0778,20.22,1111122 
DISL,ioos:station:DISL:DISL:1,2011-10-02T21:00:00Z,30.2513,-88.0778,20.43,1111122 
DISL,ioos:station:DISL:DISL:1,2011-10-02T21:30:00Z,30.2513,-88.0778,20.7,1111122 
DISL,ioos:station:DISL:DISL:1,2011-10-02T22:00:00Z,30.2513,-88.0778,20.91,1111122 
DISL,ioos:station:DISL:DISL:1,2011-10-02T22:30:00Z,30.2513,-88.0778,20.87,1111122 
DISL,ioos:station:DISL:DISL:1,2011-10-02T23:00:00Z,30.2513,-88.0778,20.8,1111122 
DISL,ioos:station:DISL:DISL:1,2011-10-02T23:30:00Z,30.2513,-88.0778,19.62,1111122 
DISL,ioos:station:DISL:DISL:1,2011-10-03T00:00:00Z,30.2513,-88.0778,19.34,1111122 
DISL,ioos:station:DISL:DISL:1,2011-10-03T00:30:00Z,30.2513,-88.0778,19.83,1111122 
DISL,ioos:station:DISL:DISL:1,2011-10-03T01:00:00Z,30.2513,-88.0778,21.4,1111122 
DISL,ioos:station:DISL:DISL:1,2011-10-03T01:30:00Z,30.2513,-88.0778,21.3,1111122 
DISL,ioos:station:DISL:DISL:1,2011-10-03T02:00:00Z,30.2513,-88.0778,21.19,1111122 
DISL,ioos:station:DISL:DISL:1,2011-10-03T02:30:00Z,30.2513,-88.0778,20.82,1111122 
DISL,ioos:station:DISL:DISL:1,2011-10-03T03:00:00Z,30.2513,-88.0778,20.32,1111122 
DISL,ioos:station:DISL:DISL:1,2011-10-03T03:30:00Z,30.2513,-88.0778,20.11,1111122 
DISL,ioos:station:DISL:DISL:1,2011-10-03T04:00:00Z,30.2513,-88.0778,20.11,1111122 
DISL,ioos:station:DISL:DISL:1,2011-10-03T04:30:00Z,30.2513,-88.0778,20.45,1111122 
DISL,ioos:station:DISL:DISL:1,2011-10-03T05:00:00Z,30.2513,-88.0778,20.15,1111122 
DISL,ioos:station:DISL:DISL:1,2011-10-03T05:30:00Z,30.2513,-88.0778,20.2,1111122 
DISL,ioos:station:DISL:DISL:1,2011-10-03T06:00:00Z,30.2513,-88.0778,20.08,1111122 
DISL,ioos:station:DISL:DISL:1,2011-10-03T06:30:00Z,30.2513,-88.0778,19.93,1111122 
DISL,ioos:station:DISL:DISL:1,2011-10-03T07:00:00Z,30.2513,-88.0778,19.78,1111122 
DISL,ioos:station:DISL:DISL:1,2011-10-03T07:30:00Z,30.2513,-88.0778,19.77,1111122 
DISL,ioos:station:DISL:DISL:1,2011-10-03T08:00:00Z,30.2513,-88.0778,19.5,1111122 
DISL,ioos:station:DISL:DISL:1,2011-10-03T08:30:00Z,30.2513,-88.0778,19.4,1111122 
DISL,ioos:station:DISL:DISL:1,2011-10-03T09:00:00Z,30.2513,-88.0778,19.05,1111122 
DISL,ioos:station:DISL:DISL:1,2011-10-03T09:30:00Z,30.2513,-88.0778,19.08,1111122 
DISL,ioos:station:DISL:DISL:1,2011-10-03T10:00:00Z,30.2513,-88.0778,18.93,1111122 
DISL,ioos:station:DISL:DISL:1,2011-10-03T10:30:00Z,30.2513,-88.0778,18.96,1111122 
DISL,ioos:station:DISL:DISL:1,2011-10-03T11:00:00Z,30.2513,-88.0778,18.66,1111122 
DISL,ioos:station:DISL:DISL:1,2011-10-03T11:30:00Z,30.2513,-88.0778,18.27,1111122 
DISL,ioos:station:DISL:DISL:1,2011-10-03T12:00:00Z,30.2513,-88.0778,18.56,1111122 
DISL,ioos:station:DISL:DISL:1,2011-10-03T12:30:00Z,30.2513,-88.0778,18.11,1111122 
DISL,ioos:station:DISL:DISL:1,2011-10-03T13:00:00Z,30.2513,-88.0778,17.87,1111122 
DISL,ioos:station:DISL:DISL:1,2011-10-03T13:30:00Z,30.2513,-88.0778,17.58,1111122 
DISL,ioos:station:DISL:DISL:1,2011-10-03T14:00:00Z,30.2513,-88.0778,17.62,1111122 
DISL,ioos:station:DISL:DISL:1,2011-10-03T14:30:00Z,30.2513,-88.0778,17.59,1111122 
DISL,ioos:station:DISL:DISL:1,2011-10-03T15:00:00Z,30.2513,-88.0778,17.82,1111122 
DISL,ioos:station:DISL:DISL:1,2011-10-03T15:30:00Z,30.2513,-88.0778,18.21,1111122 
DISL,ioos:station:DISL:DISL:1,2011-10-03T16:00:00Z,30.2513,-88.0778,18.37,1111122 
DISL,ioos:station:DISL:DISL:1,2011-10-03T16:30:00Z,30.2513,-88.0778,18.64,1111122 
DISL,ioos:station:DISL:DISL:1,2011-10-03T17:00:00Z,30.2513,-88.0778,19.08,1111122 
DISL,ioos:station:DISL:DISL:1,2011-10-03T17:30:00Z,30.2513,-88.0778,19.14,1111122 
DISL,ioos:station:DISL:DISL:1,2011-10-03T18:00:00Z,30.2513,-88.0778,19.46,1111122 
DISL,ioos:station:DISL:DISL:1,2011-10-03T18:30:00Z,30.2513,-88.0778,19.5,1111122 
DISL,ioos:station:DISL:DISL:1,2011-10-03T19:00:00Z,30.2513,-88.0778,19.46,1111122 
DISL,ioos:station:DISL:DISL:1,2011-10-03T19:30:00Z,30.2513,-88.0778,19.92,1111122 
DISL,ioos:station:DISL:DISL:1,2011-10-03T20:00:00Z,30.2513,-88.0778,20.69,1111122 
DISL,ioos:station:DISL:DISL:1,2011-10-03T20:30:00Z,30.2513,-88.0778,21.39,1111122 
DISL,ioos:station:DISL:DISL:1,2011-10-03T21:00:00Z,30.2513,-88.0778,21.68,1111122 
DISL,ioos:station:DISL:DISL:1,2011-10-03T21:30:00Z,30.2513,-88.0778,21.99,1111122 
DISL,ioos:station:DISL:DISL:1,2011-10-03T22:00:00Z,30.2513,-88.0778,22.39,1111122 
DISL,ioos:station:DISL:DISL:1,2011-10-03T22:30:00Z,30.2513,-88.0778,22.72,1111122 
DISL,ioos:station:DISL:DISL:1,2011-10-03T23:00:00Z,30.2513,-88.0778,23.05,1111122 
DISL,ioos:station:DISL:DISL:1,2011-10-03T23:30:00Z,30.2513,-88.0778,22.88,1111122 
DISL,ioos:station:DISL:DISL:1,2011-10-04T00:00:00Z,30.2513,-88.0778,21.72,1111122 
DISL,ioos:station:DISL:DISL:1,2011-10-04T00:30:00Z,30.2513,-88.0778,20.89,1111122 
DISL,ioos:station:DISL:DISL:1,2011-10-04T01:00:00Z,30.2513,-88.0778,21.09,1111122 
DISL,ioos:station:DISL:DISL:1,2011-10-04T01:30:00Z,30.2513,-88.0778,21.43,1111122 
DISL,ioos:station:DISL:DISL:1,2011-10-04T02:00:00Z,30.2513,-88.0778,21.59,1111122 
DISL,ioos:station:DISL:DISL:1,2011-10-04T02:30:00Z,30.2513,-88.0778,21.51,1111122 
DISL,ioos:station:DISL:DISL:1,2011-10-04T03:00:00Z,30.2513,-88.0778,21.3,1111122 
DISL,ioos:station:DISL:DISL:1,2011-10-04T03:30:00Z,30.2513,-88.0778,21.34,1111122 
DISL,ioos:station:DISL:DISL:1,2011-10-04T04:00:00Z,30.2513,-88.0778,21.34,1111122 
DISL,ioos:station:DISL:DISL:1,2011-10-04T04:30:00Z,30.2513,-88.0778,21.25,1111122 
DISL,ioos:station:DISL:DISL:1,2011-10-04T05:00:00Z,30.2513,-88.0778,20.93,1111122 
DISL,ioos:station:DISL:DISL:1,2011-10-04T05:30:00Z,30.2513,-88.0778,20.61,1111122 
DISL,ioos:station:DISL:DISL:1,2011-10-04T06:00:00Z,30.2513,-88.0778,20.17,1111122 
DISL,ioos:station:DISL:DISL:1,2011-10-04T06:30:00Z,30.2513,-88.0778,20.51,1111122 
DISL,ioos:station:DISL:DISL:1,2011-10-04T07:00:00Z,30.2513,-88.0778,20.96,1111122 
DISL,ioos:station:DISL:DISL:1,2011-10-04T07:30:00Z,30.2513,-88.0778,20.88,1111122 
DISL,ioos:station:DISL:DISL:1,2011-10-04T08:00:00Z,30.2513,-88.0778,20.76,1111122 
DISL,ioos:station:DISL:DISL:1,2011-10-04T08:30:00Z,30.2513,-88.0778,20.89,1111122 
DISL,ioos:station:DISL:DISL:1,2011-10-04T09:00:00Z,30.2513,-88.0778,20.66,1111122 
DISL,ioos:station:DISL:DISL:1,2011-10-04T09:30:00Z,30.2513,-88.0778,20.61,1111122 
DISL,ioos:station:DISL:DISL:1,2011-10-04T10:00:00Z,30.2513,-88.0778,20.35,1111122 
DISL,ioos:station:DISL:DISL:1,2011-10-04T10:30:00Z,30.2513,-88.0778,20.5,1111122 
DISL,ioos:station:DISL:DISL:1,2011-10-04T11:00:00Z,30.2513,-88.0778,20.03,1111122 
DISL,ioos:station:DISL:DISL:1,2011-10-04T11:30:00Z,30.2513,-88.0778,19.84,1111122 
DISL,ioos:station:DISL:DISL:1,2011-10-04T12:00:00Z,30.2513,-88.0778,19.77,1111122 
DISL,ioos:station:DISL:DISL:1,2011-10-04T12:30:00Z,30.2513,-88.0778,19.46,1111122 
DISL,ioos:station:DISL:DISL:1,2011-10-04T13:00:00Z,30.2513,-88.0778,19.42,1111122 
DISL,ioos:station:DISL:DISL:1,2011-10-04T13:30:00Z,30.2513,-88.0778,19.54,1111122 
DISL,ioos:station:DISL:DISL:1,2011-10-04T14:00:00Z,30.2513,-88.0778,19.57,1111122 
DISL,ioos:station:DISL:DISL:1,2011-10-04T14:30:00Z,30.2513,-88.0778,19.55,1111122 
DISL,ioos:station:DISL:DISL:1,2011-10-04T15:00:00Z,30.2513,-88.0778,19.77,1111122 
DISL,ioos:station:DISL:DISL:1,2011-10-04T15:30:00Z,30.2513,-88.0778,20.11,1111122 
DISL,ioos:station:DISL:DISL:1,2011-10-04T16:00:00Z,30.2513,-88.0778,20.51,1111122 
DISL,ioos:station:DISL:DISL:1,2011-10-04T16:30:00Z,30.2513,-88.0778,21.02,1111122 
DISL,ioos:station:DISL:DISL:1,2011-10-04T17:00:00Z,30.2513,-88.0778,21.22,1111122 
DISL,ioos:station:DISL:DISL:1,2011-10-04T17:30:00Z,30.2513,-88.0778,21.35,1111122 
DISL,ioos:station:DISL:DISL:1,2011-10-04T18:00:00Z,30.2513,-88.0778,21.38,1111122 
DISL,ioos:station:DISL:DISL:1,2011-10-04T18:30:00Z,30.2513,-88.0778,21.85,1111122 
DISL,ioos:station:DISL:DISL:1,2011-10-04T19:00:00Z,30.2513,-88.0778,22.41,1111122 
DISL,ioos:station:DISL:DISL:1,2011-10-04T19:30:00Z,30.2513,-88.0778,22.83,1111122 
DISL,ioos:station:DISL:DISL:1,2011-10-04T20:00:00Z,30.2513,-88.0778,23.17,1111122 
DISL,ioos:station:DISL:DISL:1,2011-10-04T20:30:00Z,30.2513,-88.0778,23.5,1111122 
DISL,ioos:station:DISL:DISL:1,2011-10-04T21:00:00Z,30.2513,-88.0778,23.96,1111122 
DISL,ioos:station:DISL:DISL:1,2011-10-04T21:30:00Z,30.2513,-88.0778,24.11,1111122 
DISL,ioos:station:DISL:DISL:1,2011-10-04T22:00:00Z,30.2513,-88.0778,24.22,1111122 
DISL,ioos:station:DISL:DISL:1,2011-10-04T22:30:00Z,30.2513,-88.0778,24.37,1111122 
DISL,ioos:station:DISL:DISL:1,2011-10-04T23:00:00Z,30.2513,-88.0778,24.16,1111122 
DISL,ioos:station:DISL:DISL:1,2011-10-04T23:30:00Z,30.2513,-88.0778,23.81,1111122 
DISL,ioos:station:DISL:DISL:1,2011-10-05T00:00:00Z,30.2513,-88.0778,22.89,1111122 
DISL,ioos:station:DISL:DISL:1,2011-10-05T00:30:00Z,30.2513,-88.0778,22.38,1111122 
DISL,ioos:station:DISL:DISL:1,2011-10-05T01:00:00Z,30.2513,-88.0778,22.78,1111122 
DISL,ioos:station:DISL:DISL:1,2011-10-05T01:30:00Z,30.2513,-88.0778,23.42,1111122 
DISL,ioos:station:DISL:DISL:1,2011-10-05T02:00:00Z,30.2513,-88.0778,23.14,1111122 
DISL,ioos:station:DISL:DISL:1,2011-10-05T02:30:00Z,30.2513,-88.0778,23.05,1111122 
DISL,ioos:station:DISL:DISL:1,2011-10-05T03:00:00Z,30.2513,-88.0778,22.75,1111122 
DISL,ioos:station:DISL:DISL:1,2011-10-05T03:30:00Z,30.2513,-88.0778,22.94,1111122 
DISL,ioos:station:DISL:DISL:1,2011-10-05T04:00:00Z,30.2513,-88.0778,22.93,1111122 
DISL,ioos:station:DISL:DISL:1,2011-10-05T04:30:00Z,30.2513,-88.0778,22.81,1111122 
DISL,ioos:station:DISL:DISL:1,2011-10-05T05:00:00Z,30.2513,-88.0778,22.71,1111122 
DISL,ioos:station:DISL:DISL:1,2011-10-05T05:30:00Z,30.2513,-88.0778,22.52,1111122 
DISL,ioos:station:DISL:DISL:1,2011-10-05T06:00:00Z,30.2513,-88.0778,22.41,1111122 
DISL,ioos:station:DISL:DISL:1,2011-10-05T06:30:00Z,30.2513,-88.0778,22.28,1111122 
DISL,ioos:station:DISL:DISL:1,2011-10-05T07:00:00Z,30.2513,-88.0778,21.98,1111122 
DISL,ioos:station:DISL:DISL:1,2011-10-05T07:30:00Z,30.2513,-88.0778,22.04,1111122 
DISL,ioos:station:DISL:DISL:1,2011-10-05T08:00:00Z,30.2513,-88.0778,21.69,1111122 
DISL,ioos:station:DISL:DISL:1,2011-10-05T08:30:00Z,30.2513,-88.0778,21.56,1111122 
DISL,ioos:station:DISL:DISL:1,2011-10-05T09:00:00Z,30.2513,-88.0778,21.45,1111122 
DISL,ioos:station:DISL:DISL:1,2011-10-05T09:30:00Z,30.2513,-88.0778,21.38,1111122 
DISL,ioos:station:DISL:DISL:1,2011-10-05T10:00:00Z,30.2513,-88.0778,21.5,1111122 
DISL,ioos:station:DISL:DISL:1,2011-10-05T10:30:00Z,30.2513,-88.0778,21.26,1111122 
DISL,ioos:station:DISL:DISL:1,2011-10-05T11:00:00Z,30.2513,-88.0778,20.91,1111122 
DISL,ioos:station:DISL:DISL:1,2011-10-05T11:30:00Z,30.2513,-88.0778,20.47,1111122 
DISL,ioos:station:DISL:DISL:1,2011-10-05T12:00:00Z,30.2513,-88.0778,20.04,1111122 
DISL,ioos:station:DISL:DISL:1,2011-10-05T12:30:00Z,30.2513,-88.0778,19.75,1111122 
DISL,ioos:station:DISL:DISL:1,2011-10-05T13:00:00Z,30.2513,-88.0778,19.47,1111122 
DISL,ioos:station:DISL:DISL:1,2011-10-05T13:30:00Z,30.2513,-88.0778,19.6,1111122 
DISL,ioos:station:DISL:DISL:1,2011-10-05T14:00:00Z,30.2513,-88.0778,19.49,1111122 
DISL,ioos:station:DISL:DISL:1,2011-10-05T14:30:00Z,30.2513,-88.0778,19.43,1111122 
DISL,ioos:station:DISL:DISL:1,2011-10-05T15:00:00Z,30.2513,-88.0778,19.81,1111122 
DISL,ioos:station:DISL:DISL:1,2011-10-05T15:30:00Z,30.2513,-88.0778,20.11,1111122 
DISL,ioos:station:DISL:DISL:1,2011-10-05T16:00:00Z,30.2513,-88.0778,20.67,1111122 
DISL,ioos:station:DISL:DISL:1,2011-10-05T16:30:00Z,30.2513,-88.0778,21.31,1111122 
DISL,ioos:station:DISL:DISL:1,2011-10-05T17:00:00Z,30.2513,-88.0778,21.52,1111122 
DISL,ioos:station:DISL:DISL:1,2011-10-05T17:30:00Z,30.2513,-88.0778,22.12,1111122 
DISL,ioos:station:DISL:DISL:1,2011-10-05T18:00:00Z,30.2513,-88.0778,22.79,1111122 
DISL,ioos:station:DISL:DISL:1,2011-10-05T18:30:00Z,30.2513,-88.0778,24.61,1111122 
DISL,ioos:station:DISL:DISL:1,2011-10-05T19:00:00Z,30.2513,-88.0778,24.9,1111122 
DISL,ioos:station:DISL:DISL:1,2011-10-05T19:30:00Z,30.2513,-88.0778,24.46,1111122 
DISL,ioos:station:DISL:DISL:1,2011-10-05T20:00:00Z,30.2513,-88.0778,24.56,1111122 
DISL,ioos:station:DISL:DISL:1,2011-10-05T20:30:00Z,30.2513,-88.0778,24.66,1111122 
DISL,ioos:station:DISL:DISL:1,2011-10-05T21:00:00Z,30.2513,-88.0778,24.43,1111122 
DISL,ioos:station:DISL:DISL:1,2011-10-05T21:30:00Z,30.2513,-88.0778,24.48,1111122 
DISL,ioos:station:DISL:DISL:1,2011-10-05T22:00:00Z,30.2513,-88.0778,24.66,1111122 
DISL,ioos:station:DISL:DISL:1,2011-10-05T22:30:00Z,30.2513,-88.0778,24.91,1111122 
DISL,ioos:station:DISL:DISL:1,2011-10-05T23:00:00Z,30.2513,-88.0778,24.72,1111122 
DISL,ioos:station:DISL:DISL:1,2011-10-05T23:30:00Z,30.2513,-88.0778,24.55,1111122 
DISL,ioos:station:DISL:DISL:1,2011-10-06T00:00:00Z,30.2513,-88.0778,24.41,1111122 
DISL,ioos:station:DISL:DISL:1,2011-10-06T00:30:00Z,30.2513,-88.0778,24.29,1111122 
DISL,ioos:station:DISL:DISL:1,2011-10-06T01:00:00Z,30.2513,-88.0778,24.17,1111122 
DISL,ioos:station:DISL:DISL:1,2011-10-06T01:30:00Z,30.2513,-88.0778,24.09,1111122 
DISL,ioos:station:DISL:DISL:1,2011-10-06T02:00:00Z,30.2513,-88.0778,23.79,1111122 
DISL,ioos:station:DISL:DISL:1,2011-10-06T02:30:00Z,30.2513,-88.0778,23.19,1111122 
DISL,ioos:station:DISL:DISL:1,2011-10-06T03:00:00Z,30.2513,-88.0778,22.59,1111122 
DISL,ioos:station:DISL:DISL:1,2011-10-06T03:30:00Z,30.2513,-88.0778,22.18,1111122 
DISL,ioos:station:DISL:DISL:1,2011-10-06T04:00:00Z,30.2513,-88.0778,22.58,1111122 
DISL,ioos:station:DISL:DISL:1,2011-10-06T04:30:00Z,30.2513,-88.0778,22.7,1111122 
DISL,ioos:station:DISL:DISL:1,2011-10-06T05:00:00Z,30.2513,-88.0778,22.71,1111122 
DISL,ioos:station:DISL:DISL:1,2011-10-06T05:30:00Z,30.2513,-88.0778,22.57,1111122 
DISL,ioos:station:DISL:DISL:1,2011-10-06T06:00:00Z,30.2513,-88.0778,22.59,1111122 
DISL,ioos:station:DISL:DISL:1,2011-10-06T06:30:00Z,30.2513,-88.0778,22.72,1111122 
DISL,ioos:station:DISL:DISL:1,2011-10-06T07:00:00Z,30.2513,-88.0778,22.52,1111122 
DISL,ioos:station:DISL:DISL:1,2011-10-06T07:30:00Z,30.2513,-88.0778,22.44,1111122 
DISL,ioos:station:DISL:DISL:1,2011-10-06T08:00:00Z,30.2513,-88.0778,22.64,1111122 
DISL,ioos:station:DISL:DISL:1,2011-10-06T08:30:00Z,30.2513,-88.0778,22.43,1111122 
DISL,ioos:station:DISL:DISL:1,2011-10-06T09:00:00Z,30.2513,-88.0778,22.25,1111122 
DISL,ioos:station:DISL:DISL:1,2011-10-06T09:30:00Z,30.2513,-88.0778,22.18,1111122 
DISL,ioos:station:DISL:DISL:1,2011-10-06T10:00:00Z,30.2513,-88.0778,22.22,1111122 
DISL,ioos:station:DISL:DISL:1,2011-10-06T10:30:00Z,30.2513,-88.0778,21.93,1111122 
DISL,ioos:station:DISL:DISL:1,2011-10-06T11:00:00Z,30.2513,-88.0778,21.85,1111122 
DISL,ioos:station:DISL:DISL:1,2011-10-06T11:30:00Z,30.2513,-88.0778,21.56,1111122 
DISL,ioos:station:DISL:DISL:1,2011-10-06T12:00:00Z,30.2513,-88.0778,21.53,1111122 
DISL,ioos:station:DISL:DISL:1,2011-10-06T12:30:00Z,30.2513,-88.0778,21.23,1111122 
DISL,ioos:station:DISL:DISL:1,2011-10-06T13:00:00Z,30.2513,-88.0778,20.81,1111122 
DISL,ioos:station:DISL:DISL:1,2011-10-06T13:30:00Z,30.2513,-88.0778,20.92,1111122 
DISL,ioos:station:DISL:DISL:1,2011-10-06T14:00:00Z,30.2513,-88.0778,21.44,1111122 
DISL,ioos:station:DISL:DISL:1,2011-10-06T14:30:00Z,30.2513,-88.0778,21.97,1111122 
DISL,ioos:station:DISL:DISL:1,2011-10-06T15:00:00Z,30.2513,-88.0778,22.0,1111122 
DISL,ioos:station:DISL:DISL:1,2011-10-06T15:30:00Z,30.2513,-88.0778,22.41,1111122 
DISL,ioos:station:DISL:DISL:1,2011-10-06T16:00:00Z,30.2513,-88.0778,22.88,1111122 
DISL,ioos:station:DISL:DISL:1,2011-10-06T16:30:00Z,30.2513,-88.0778,23.48,1111122 
DISL,ioos:station:DISL:DISL:1,2011-10-06T17:00:00Z,30.2513,-88.0778,24.2,1111122 
DISL,ioos:station:DISL:DISL:1,2011-10-06T17:30:00Z,30.2513,-88.0778,24.46,1111122 
DISL,ioos:station:DISL:DISL:1,2011-10-06T18:00:00Z,30.2513,-88.0778,24.56,1111122 
DISL,ioos:station:DISL:DISL:1,2011-10-06T18:30:00Z,30.2513,-88.0778,24.46,1111122 
DISL,ioos:station:DISL:DISL:1,2011-10-06T19:00:00Z,30.2513,-88.0778,24.63,1111122 
DISL,ioos:station:DISL:DISL:1,2011-10-06T19:30:00Z,30.2513,-88.0778,24.87,1111122 
DISL,ioos:station:DISL:DISL:1,2011-10-06T20:00:00Z,30.2513,-88.0778,24.6,1111122 
DISL,ioos:station:DISL:DISL:1,2011-10-06T20:30:00Z,30.2513,-88.0778,24.65,1111122 
DISL,ioos:station:DISL:DISL:1,2011-10-06T21:00:00Z,30.2513,-88.0778,24.79,1111122 
DISL,ioos:station:DISL:DISL:1,2011-10-06T21:30:00Z,30.2513,-88.0778,24.5,1111122 
DISL,ioos:station:DISL:DISL:1,2011-10-06T22:00:00Z,30.2513,-88.0778,24.57,1111122 
DISL,ioos:station:DISL:DISL:1,2011-10-06T22:30:00Z,30.2513,-88.0778,24.57,1111122 
DISL,ioos:station:DISL:DISL:1,2011-10-06T23:00:00Z,30.2513,-88.0778,24.66,1111122 
DISL,ioos:station:DISL:DISL:1,2011-10-06T23:30:00Z,30.2513,-88.0778,24.52,1111122 